• In Lithuania
  • List of Countries
  • For 7 days
  • Water Temperature
  • Satellite Maps
  • Weather Map
  • Weather Widgets
  • user-avatar
    Login

    Hourly Weather Punakha

    Today, 22 October, Sunday

    Time Temperature Precipitation Wind Pressure Humidity
    00:00 +13°C° 0 mm 1 mps 580 mmHg 86%
    01:00 +13°C° 0 mm 1 mps 580 mmHg 84%
    02:00 +13°C° 0 mm 1 mps 580 mmHg 82%
    03:00 +12°C° 0 mm 1 mps 580 mmHg 81%
    04:00 +12°C° 0 mm 1 mps 580 mmHg 80%
    05:00 +12°C° 0 mm 1 mps 580 mmHg 78%
    06:00 +12°C° 0 mm 1 mps 580 mmHg 77%
    07:00 +15°C° 0 mm 1 mps 582 mmHg 69%
    08:00 +19°C° 0 mm 1 mps 583 mmHg 62%
    09:00 +21°C° 0 mm 1 mps 585 mmHg 54%
    10:00 +22°C° 0 mm 1 mps 585 mmHg 54%
    11:00 +23°C° 0 mm 2 mps 585 mmHg 55%
    12:00 +23°C° 0 mm 2 mps 585 mmHg 55%
    13:00 +21°C° 0.1 mm 2 mps 584 mmHg 62%
    14:00 +20°C° 0.1 mm 2 mps 583 mmHg 69%
    15:00 +19°C° 0.1 mm 2 mps 582 mmHg 76%
    16:00 +18°C° 0.1 mm 2 mps 582 mmHg 82%
    17:00 +18°C° 0.1 mm 1 mps 581 mmHg 89%
    18:00 +16°C° 0.1 mm 1 mps 581 mmHg 95%
    19:00 +15°C° 0.1 mm 1 mps 582 mmHg 95%
    20:00 +15°C° 0.1 mm 1 mps 582 mmHg 96%
    21:00 +15°C° 0.1 mm 1 mps 582 mmHg 96%
    22:00 +14°C° 0 mm 1 mps 582 mmHg 95%
    23:00 +14°C° 0 mm 1 mps 582 mmHg 94%

    Tomorrow, 23 October, Monday

    Time Temperature Precipitation Wind Pressure Humidity
    00:00 +14°C° 0 mm 1 mps 582 mmHg 94%
    01:00 +13°C° 0 mm 1 mps 582 mmHg 93%
    02:00 +13°C° 0 mm 1 mps 582 mmHg 93%
    03:00 +13°C° 0 mm 1 mps 582 mmHg 92%
    04:00 +13°C° 0 mm 1 mps 582 mmHg 91%
    05:00 +12°C° 0 mm 1 mps 582 mmHg 90%
    06:00 +12°C° 0 mm 1 mps 582 mmHg 90%
    07:00 +14°C° 0 mm 2 mps 583 mmHg 82%
    08:00 +16°C° 0 mm 2 mps 584 mmHg 75%
    09:00 +18°C° 0 mm 2 mps 586 mmHg 68%
    10:00 +18°C° 0.1 mm 2 mps 585 mmHg 67%
    11:00 +19°C° 0.1 mm 3 mps 585 mmHg 66%
    12:00 +19°C° 0.1 mm 3 mps 585 mmHg 65%
    13:00 +19°C° 0.1 mm 3 mps 584 mmHg 68%
    14:00 +18°C° 0.1 mm 3 mps 583 mmHg 70%
    15:00 +18°C° 0.1 mm 3 mps 583 mmHg 73%
    16:00 +17°C° 0.1 mm 3 mps 582 mmHg 80%
    17:00 +15°C° 0.1 mm 2 mps 582 mmHg 87%
    18:00 +14°C° 0.1 mm 2 mps 582 mmHg 94%
    19:00 +14°C° 0.1 mm 2 mps 582 mmHg 93%
    20:00 +14°C° 0.1 mm 2 mps 583 mmHg 93%
    21:00 +13°C° 0.1 mm 2 mps 583 mmHg 93%
    22:00 +13°C° 0.1 mm 2 mps 583 mmHg 93%
    23:00 +13°C° 0.1 mm 2 mps 583 mmHg 94%

    Day after tomorrow, 24 October, Tuesday

    Time Temperature Precipitation Wind Pressure Humidity
    00:00 +13°C° 0.1 mm 2 mps 583 mmHg 94%
    01:00 +13°C° 0.2 mm 2 mps 583 mmHg 94%
    02:00 +12°C° 0.2 mm 2 mps 582 mmHg 94%
    03:00 +12°C° 0.2 mm 2 mps 582 mmHg 94%
    04:00 +12°C° 0.1 mm 2 mps 582 mmHg 94%
    05:00 +12°C° 0.1 mm 2 mps 582 mmHg 93%
    06:00 +10°C° 0.1 mm 2 mps 582 mmHg 93%
    07:00 +13°C° 0.1 mm 2 mps 583 mmHg 85%
    08:00 +15°C° 0.1 mm 2 mps 585 mmHg 77%
    09:00 +16°C° 0.1 mm 2 mps 586 mmHg 69%
    10:00 +17°C° 0.1 mm 3 mps 586 mmHg 66%
    11:00 +17°C° 0.1 mm 3 mps 585 mmHg 62%
    12:00 +18°C° 0.1 mm 3 mps 585 mmHg 59%
    13:00 +18°C° 0.1 mm 3 mps 585 mmHg 62%
    14:00 +17°C° 0.1 mm 3 mps 584 mmHg 65%
    15:00 +17°C° 0.1 mm 3 mps 583 mmHg 67%
    16:00 +14°C° 0.1 mm 3 mps 583 mmHg 76%
    17:00 +14°C° 0.1 mm 2 mps 583 mmHg 85%
    18:00 +12°C° 0.1 mm 2 mps 582 mmHg 93%
    19:00 +12°C° 0.1 mm 2 mps 583 mmHg 92%
    20:00 +12°C° 0.1 mm 2 mps 583 mmHg 92%
    21:00 +10°C° 0.1 mm 2 mps 584 mmHg 91%
    22:00 +11°C° 0 mm 1 mps 584 mmHg 89%
    23:00 +11°C° 0 mm 1 mps 584 mmHg 88%

    25 October, Wednesday

    Time Temperature Precipitation Wind Pressure Humidity
    00:00 +10°C° 0 mm 1 mps 584 mmHg 86%
    01:00 +10°C° 0 mm 1 mps 584 mmHg 85%
    02:00 +9°C° 0 mm 1 mps 583 mmHg 84%
    03:00 +9°C° 0 mm 1 mps 583 mmHg 83%
    04:00 +9°C° 0 mm 1 mps 583 mmHg 81%
    05:00 +8°C° 0 mm 1 mps 583 mmHg 79%
    06:00 +8°C° 0 mm 1 mps 583 mmHg 78%
    07:00 +11°C° 0 mm 1 mps 585 mmHg 69%
    08:00 +13°C° 0 mm 1 mps 587 mmHg 60%
    09:00 +16°C° 0 mm 1 mps 588 mmHg 52%
    10:00 +17°C° 0 mm 2 mps 588 mmHg 50%
    11:00 +18°C° 0 mm 2 mps 588 mmHg 49%
    12:00 +19°C° 0 mm 2 mps 588 mmHg 48%
    13:00 +18°C° 0.1 mm 2 mps 587 mmHg 52%
    14:00 +17°C° 0.1 mm 2 mps 586 mmHg 56%
    15:00 +17°C° 0.1 mm 2 mps 585 mmHg 60%
    16:00 +15°C° 0.1 mm 2 mps 585 mmHg 71%
    17:00 +13°C° 0.1 mm 1 mps 584 mmHg 81%
    18:00 +11°C° 0.1 mm 1 mps 584 mmHg 91%
    19:00 +11°C° 0 mm 1 mps 584 mmHg 88%
    20:00 +11°C° 0 mm 1 mps 584 mmHg 85%
    21:00 +10°C° 0 mm 1 mps 585 mmHg 82%
    22:00 +10°C° 0 mm 1 mps 585 mmHg 78%
    23:00 +10°C° 0 mm 1 mps 585 mmHg 74%

    26 October, Thursday

    Time Temperature Precipitation Wind Pressure Humidity
    00:00 +9°C° 0 mm 2 mps 584 mmHg 70%
    01:00 +9°C° 0 mm 2 mps 584 mmHg 68%
    02:00 +9°C° 0 mm 2 mps 584 mmHg 65%
    03:00 +8°C° 0 mm 2 mps 584 mmHg 63%
    04:00 +8°C° 0 mm 2 mps 584 mmHg 61%
    05:00 +8°C° 0 mm 2 mps 584 mmHg 60%
    06:00 +8°C° 0 mm 2 mps 584 mmHg 58%
    07:00 +12°C° 0 mm 2 mps 586 mmHg 52%
    08:00 +15°C° 0 mm 1 mps 588 mmHg 47%
    09:00 +19°C° 0 mm 1 mps 589 mmHg 41%
    10:00 +19°C° 0 mm 2 mps 589 mmHg 42%
    11:00 +20°C° 0 mm 2 mps 589 mmHg 43%
    12:00 +20°C° 0 mm 3 mps 588 mmHg 44%
    13:00 +20°C° 0 mm 3 mps 587 mmHg 49%
    14:00 +19°C° 0 mm 3 mps 587 mmHg 53%
    15:00 +19°C° 0 mm 3 mps 586 mmHg 58%
    16:00 +16°C° 0 mm 2 mps 585 mmHg 69%
    17:00 +14°C° 0 mm 2 mps 584 mmHg 80%
    18:00 +12°C° 0 mm 1 mps 584 mmHg 91%
    19:00 +12°C° 0 mm 1 mps 584 mmHg 89%
    20:00 +12°C° 0 mm 1 mps 584 mmHg 86%
    21:00 +11°C° 0 mm 1 mps 585 mmHg 84%
    22:00 +11°C° 0 mm 1 mps 584 mmHg 82%
    23:00 +10°C° 0 mm 1 mps 584 mmHg 80%

    27 October, Friday

    Time Temperature Precipitation Wind Pressure Humidity
    00:00 +10°C° 0 mm 1 mps 584 mmHg 78%
    01:00 +10°C° 0 mm 1 mps 584 mmHg 76%
    02:00 +10°C° 0 mm 1 mps 583 mmHg 75%
    03:00 +9°C° 0 mm 1 mps 583 mmHg 73%
    04:00 +9°C° 0 mm 1 mps 583 mmHg 71%
    05:00 +9°C° 0 mm 1 mps 583 mmHg 70%
    06:00 +9°C° 0 mm 1 mps 584 mmHg 68%
    07:00 +12°C° 0 mm 1 mps 585 mmHg 61%
    08:00 +15°C° 0 mm 1 mps 586 mmHg 53%
    09:00 +19°C° 0 mm 1 mps 588 mmHg 46%
    10:00 +18°C° 0 mm 2 mps 588 mmHg 45%
    11:00 +19°C° 0 mm 2 mps 587 mmHg 43%
    12:00 +20°C° 0 mm 3 mps 587 mmHg 42%
    13:00 +20°C° 0 mm 3 mps 586 mmHg 46%
    14:00 +19°C° 0 mm 3 mps 586 mmHg 51%
    15:00 +18°C° 0 mm 3 mps 585 mmHg 55%
    16:00 +16°C° 0 mm 2 mps 584 mmHg 67%
    17:00 +14°C° 0 mm 2 mps 584 mmHg 80%
    18:00 +12°C° 0 mm 1 mps 583 mmHg 92%
    19:00 +12°C° 0 mm 1 mps 583 mmHg 91%
    20:00 +11°C° 0 mm 1 mps 584 mmHg 89%
    21:00 +11°C° 0 mm 1 mps 584 mmHg 87%
    22:00 +11°C° 0 mm 1 mps 584 mmHg 85%
    23:00 +11°C° 0 mm 1 mps 584 mmHg 83%
    Show more